Wind_Speed
27 24 21 21 21 21 22 22 22 23 24 26 28 28 28 30 31 30 29 28 29 29 29 29 28 28 29 30 30 30 29 30 29 29 29 29 29 30 30 31 31 30 30 30
29 27 25 24 23 23 24 24 24 25 26 27 29 31 31 32 31 31 30 29 29 30 30 30 29 29 30 30 30 30 30 30 30 30 30 30 30 30 31 31 30 30 30 30
28 27 28 28 25 23 24 24 26 27 28 30 31 33 32 32 31 32 31 30 30 30 31 30 31 30 31 31 31 31 31 31 31 31 31 31 31 31 31 30 30 30 30 30
28 27 28 27 27 27 28 27 27 29 31 32 32 32 34 33 33 33 31 30 31 31 31 31 31 32 32 32 31 33 33 32 32 32 33 32 32 31 31 31 31 30 30 31
26 27 27 26 27 28 29 31 31 32 33 31 32 32 34 34 33 32 31 31 32 32 32 32 32 32 32 33 33 33 33 33 33 33 33 33 32 32 32 32 32 31 30 30
27 27 26 27 27 28 30 33 34 34 34 33 34 34 35 34 33 33 33 33 33 33 33 33 33 34 34 34 33 33 34 34 34 34 34 34 33 32 32 32 32 31 31 31
27 27 28 28 28 28 30 33 34 35 36 36 37 36 36 36 34 34 35 35 35 34 34 34 34 35 35 35 34 34 34 35 36 35 35 34 34 34 33 33 33 33 32 32
29 29 31 29 30 31 32 33 34 34 35 36 37 36 36 35 35 35 35 36 35 35 34 35 35 35 35 35 35 36 36 36 35 35 35 35 35 35 35 34 34 34 34 33
30 32 34 32 31 32 33 33 34 35 34 34 35 36 36 36 36 36 36 36 36 35 36 36 35 35 36 36 36 36 36 35 36 36 35 35 35 35 35 35 35 35 34 33
31 32 32 32 33 33 33 33 34 35 35 35 35 36 36 37 38 38 37 37 36 36 36 35 35 36 36 37 36 36 35 36 36 36 35 36 36 37 36 36 35 35 35 34
31 32 31 32 32 33 34 35 36 36 35 35 36 36 37 37 37 37 37 37 36 36 36 37 37 36 36 35 35 36 36 36 36 36 36 36 36 36 36 35 35 35 35 35
30 31 31 32 32 32 33 34 34 35 35 36 37 37 37 37 37 36 36 36 36 36 36 36 37 37 36 36 36 36 36 36 36 36 35 35 35 35 35 35 35 35 36 35
31 30 30 30 32 32 32 33 35 35 36 36 36 37 38 36 36 36 35 36 36 36 36 36 36 36 35 35 36 35 35 35 35 35 35 34 34 34 34 34 34 35 35 35
31 30 30 30 31 32 31 32 34 34 34 35 35 35 35 35 35 35 35 35 36 36 36 36 35 35 35 35 35 35 35 35 35 34 34 33 34 33 33 33 33 34 34 34
31 31 30 30 30 31 31 31 31 32 32 33 33 34 33 33 34 34 34 34 35 35 35 35 35 35 35 34 34 34 34 34 33 33 33 33 33 33 34 34 34 33 33 33
30 30 30 30 29 29 30 31 32 32 31 32 32 32 32 32 32 32 32 33 33 33 33 34 34 34 34 34 34 33 33 32 32 32 33 33 33 33 34 34 33 32 32 32
30 30 30 30 30 30 31 31 32 32 31 32 32 31 31 32 31 31 32 32 32 32 32 33 32 32 33 33 34 33 32 32 32 33 33 33 33 33 33 34 33 32 31 31
30 30 30 30 30 29 30 30 30 30 31 30 31 31 31 31 31 31 32 32 32 31 31 31 31 32 32 33 33 33 32 32 32 32 32 33 33 33 33 33 33 32 32 32
29 30 30 30 30 30 29 29 29 29 29 29 30 30 30 30 30 31 31 31 30 30 30 30 30 31 31 31 31 31 31 31 32 32 32 32 33 33 33 32 32 32 32 32
29 30 30 30 30 29 29 29 28 28 28 29 29 29 29 29 29 30 30 30 30 30 30 30 30 30 30 30 30 31 31 31 31 32 32 33 33 33 32 32 32 32 32 32
28 29 29 29 29 29 29 29 29 28 29 29 29 30 30 30 30 30 30 29 29 30 30 30 30 30 30 30 30 30 31 31 32 32 32 33 33 32 32 32 32 32 32 31
27 27 27 28 28 28 29 29 29 29 30 30 30 30 30 31 31 30 30 30 30 30 30 30 30 30 30 30 30 30 31 32 32 32 32 33 32 32 32 32 31 31 31 31
26 26 26 27 27 27 28 28 29 30 30 31 31 31 30 30 30 31 31 30 30 29 30 30 30 30 30 30 30 31 31 31 31 31 31 31 31 30 31 31 30 30 31 31
24 24 25 26 27 27 27 27 28 28 29 29 29 29 29 29 29 30 29 28 29 30 30 29 29 29 29 30 31 31 31 31 30 30 30 30 29 29 29 30 29 28 29 29
23 23 24 24 25 25 26 26 26 26 26 26 27 27 28 28 28 27 27 28 28 28 28 28 28 29 30 30 29 29 29 29 28 27 27 27 27 28 28 28 27 27 27 26
21 22 22 23 23 23 23 24 24 24 24 24 24 25 26 27 27 26 27 27 27 27 27 28 28 28 29 29 28 28 27 27 26 27 27 27 27 27 27 27 27 26 25 25
19 19 20 21 21 22 22 23 23 22 23 23 24 24 25 25 26 26 26 26 26 26 27 27 27 27 27 26 26 26 26 26 25 25 25 25 24 25 25 25 25 24 23 23
Wind_Direction
235 233 238 249 253 251 250 250 251 257 263 267 271 275 273 275 280 283 284 285 286 287 287 288 289 290 290 290 292 293 293 293 293 293 294 294 294 294 294 294 296 293 293 294
239 235 235 242 248 250 253 250 251 255 259 264 266 269 270 273 277 281 284 285 286 286 286 287 289 289 289 289 290 291 290 291 292 292 293 293 293 294 294 294 295 295 292 293
243 241 240 241 243 246 250 250 249 253 257 261 265 269 271 272 277 280 281 282 284 287 287 286 287 288 289 290 289 290 290 291 292 293 293 293 293 292 292 293 295 296 293 292
248 247 245 243 243 245 248 250 254 255 258 262 263 266 270 274 277 278 279 282 284 285 285 285 287 287 287 287 288 289 289 290 292 292 292 292 292 291 290 292 293 294 293 291
249 250 250 248 246 246 251 253 253 257 260 262 266 267 269 272 275 277 278 281 283 284 284 286 287 287 286 285 286 288 289 288 290 292 293 292 292 291 289 290 292 292 292 292
249 248 250 249 251 249 252 255 256 258 260 263 265 267 270 273 275 276 278 280 283 285 285 286 287 287 287 286 288 290 292 292 291 293 293 292 290 289 289 289 290 291 291 292
248 250 252 252 254 254 253 257 260 262 264 266 266 268 272 273 274 277 279 280 282 283 285 286 289 289 288 288 288 290 292 292 292 292 291 290 289 288 288 288 289 289 290 291
247 247 250 253 254 255 257 258 260 264 266 266 268 271 272 274 275 277 278 279 281 282 283 285 288 289 288 288 289 290 291 291 291 290 291 290 290 289 288 288 288 288 289 290
251 252 256 257 258 259 261 263 264 265 267 269 271 272 273 274 276 277 279 281 282 282 283 284 286 288 288 288 289 289 290 290 290 290 289 288 288 290 289 287 287 288 289 290
253 256 259 260 261 263 265 265 266 267 269 271 271 272 273 276 277 278 279 280 281 282 283 283 285 288 288 288 288 289 288 289 289 289 288 287 287 288 288 287 286 287 289 289
257 259 261 262 264 265 266 266 267 269 270 271 273 274 274 276 277 278 279 279 280 282 282 282 284 285 287 288 288 288 288 288 288 289 287 286 287 287 287 286 286 286 288 289
259 261 262 264 265 265 268 269 269 269 270 271 272 274 275 275 277 278 279 279 281 281 281 282 283 284 285 286 287 288 288 289 289 290 289 288 287 286 285 287 287 288 289 290
260 262 263 266 267 268 268 270 270 272 272 273 273 275 275 277 279 279 279 281 281 281 282 283 284 284 285 286 287 287 288 288 289 289 291 290 288 287 286 288 289 290 290 291
260 262 262 264 267 270 271 271 273 274 274 275 275 276 278 279 279 278 279 280 281 282 283 283 284 284 285 285 287 287 288 288 288 290 291 291 290 290 289 290 290 289 290 291
263 263 263 265 267 270 271 272 274 275 276 276 278 279 279 280 280 279 280 281 282 283 283 284 285 285 285 286 286 287 288 288 289 290 290 290 290 292 292 291 291 290 289 289
264 265 265 266 268 269 270 273 276 275 275 276 278 280 281 281 281 280 281 282 283 284 285 285 286 285 285 286 287 288 289 289 289 290 290 290 291 292 291 291 290 290 290 290
264 265 266 268 271 269 270 271 274 276 276 276 277 280 282 281 281 282 282 284 285 285 285 285 286 286 286 287 287 287 288 288 289 289 290 291 291 291 291 290 289 288 290 291
265 267 268 269 272 271 270 271 274 275 275 275 277 279 280 281 282 283 283 284 285 285 285 286 286 287 287 288 288 286 286 287 288 290 290 290 291 292 292 290 290 291 291 292
266 267 269 270 271 271 270 272 274 274 274 274 278 280 281 280 282 283 284 284 284 284 285 286 287 287 288 288 288 287 287 288 289 290 291 291 290 292 293 293 293 292 292 293
266 268 269 270 271 271 271 272 272 273 275 278 279 281 282 283 284 284 284 284 284 284 285 286 287 288 288 289 288 288 288 289 289 289 290 290 291 291 292 293 293 292 292 293
267 268 269 270 271 271 272 274 275 274 276 278 280 281 282 283 284 284 284 284 284 285 285 286 287 287 288 287 288 288 289 289 290 289 289 289 290 291 291 292 293 292 292 293
269 270 271 272 274 273 273 273 273 274 275 278 279 280 281 280 281 283 284 284 285 286 285 286 286 287 288 288 288 289 290 291 291 290 290 291 290 290 291 292 292 292 292 292
272 273 273 274 275 276 276 275 274 274 275 276 278 280 281 280 281 282 284 285 286 287 286 287 287 288 288 288 288 290 291 292 291 291 291 291 291 290 291 292 293 293 292 293
275 276 276 277 278 279 279 278 278 277 278 278 279 281 281 282 282 283 284 285 285 286 287 288 288 289 289 289 289 291 291 292 292 292 292 292 293 293 292 292 293 294 295 295
277 277 278 279 280 281 281 280 280 281 282 281 281 280 280 283 285 284 284 285 286 287 287 287 288 288 289 291 291 291 292 292 293 294 294 294 295 294 293 295 296 296 297 296
279 277 277 279 283 285 285 284 284 284 284 283 283 282 281 283 286 287 287 287 287 287 287 288 288 288 289 290 291 292 293 294 295 295 295 296 296 296 296 297 297 298 298 297
282 282 282 283 285 287 287 286 287 286 284 284 285 285 284 284 286 287 287 287 287 288 289 289 289 289 289 290 291 291 291 291 293 295 296 298 299 299 300 300 299 298 297 296
Height
5873 5877 5879 5880 5882 5883 5884 5885 5887 5888 5887 5885 5883 5881 5880 5878 5877 5877 5876 5875 5874 5873 5871 5869 5868 5866 5864 5863 5861 5859 5857 5855 5854 5852 5850 5848 5847 5845 5843 5841 5839 5837 5835 5833
5865 5869 5872 5874 5876 5878 5878 5879 5880 5880 5879 5876 5875 5874 5873 5872 5871 5870 5870 5869 5868 5866 5865 5862 5861 5860 5858 5856 5854 5852 5851 5849 5847 5845 5843 5841 5840 5838 5836 5834 5832 5830 5828 5826
5858 5862 5864 5866 5870 5871 5872 5871 5871 5871 5871 5869 5868 5866 5866 5865 5865 5864 5863 5862 5861 5859 5858 5855 5854 5853 5851 5849 5847 5845 5844 5842 5840 5838 5836 5834 5832 5830 5828 5826 5825 5822 5820 5819
5851 5854 5856 5861 5862 5863 5863 5863 5863 5862 5862 5860 5859 5858 5858 5858 5858 5856 5856 5855 5854 5852 5850 5848 5846 5845 5843 5840 5839 5838 5836 5834 5832 5830 5828 5826 5824 5822 5821 5819 5817 5815 5813 5811
5844 5846 5848 5852 5852 5854 5855 5855 5855 5854 5853 5853 5851 5850 5850 5850 5850 5849 5848 5847 5846 5844 5842 5841 5839 5837 5835 5833 5831 5829 5828 5826 5824 5822 5820 5818 5816 5814 5812 5811 5809 5807 5805 5803
5837 5839 5841 5842 5844 5845 5847 5845 5846 5845 5845 5845 5844 5844 5843 5842 5842 5841 5840 5839 5837 5836 5834 5833 5831 5829 5827 5825 5823 5821 5819 5818 5816 5814 5812 5810 5808 5806 5804 5802 5800 5798 5797 5795
5830 5831 5833 5834 5835 5837 5838 5837 5836 5836 5836 5836 5835 5835 5835 5833 5833 5832 5832 5830 5829 5827 5826 5824 5822 5820 5817 5816 5815 5813 5811 5809 5807 5805 5803 5801 5799 5797 5795 5793 5791 5789 5788 5786
5822 5824 5825 5826 5826 5828 5828 5827 5827 5827 5826 5825 5825 5826 5826 5825 5825 5824 5823 5821 5820 5819 5817 5815 5813 5811 5809 5807 5806 5804 5802 5800 5798 5796 5794 5792 5790 5788 5786 5784 5782 5780 5778 5776
5816 5817 5816 5817 5817 5818 5818 5818 5818 5818 5818 5816 5817 5817 5817 5816 5816 5815 5813 5812 5811 5810 5808 5806 5804 5803 5800 5799 5797 5795 5793 5791 5789 5787 5785 5782 5780 5778 5776 5774 5772 5770 5768 5767
5806 5807 5807 5807 5809 5810 5810 5810 5809 5809 5809 5808 5808 5808 5808 5807 5806 5805 5804 5803 5801 5800 5798 5796 5795 5793 5792 5789 5787 5785 5783 5781 5779 5777 5775 5773 5771 5769 5767 5764 5762 5760 5758 5757
5797 5799 5799 5800 5801 5801 5801 5801 5800 5800 5800 5799 5799 5798 5798 5797 5796 5795 5794 5792 5791 5790 5789 5787 5786 5784 5782 5780 5778 5776 5774 5772 5770 5768 5766 5763 5761 5759 5757 5755 5752 5750 5748 5747
5789 5790 5791 5791 5792 5792 5791 5791 5791 5790 5790 5790 5789 5788 5788 5787 5786 5785 5784 5782 5781 5780 5779 5778 5776 5774 5772 5770 5768 5766 5764 5762 5760 5758 5755 5753 5751 5749 5747 5745 5743 5740 5738 5736
5781 5781 5782 5782 5783 5783 5782 5782 5781 5781 5781 5780 5779 5779 5778 5777 5776 5775 5774 5773 5771 5770 5769 5767 5766 5764 5762 5761 5759 5757 5754 5752 5750 5748 5746 5743 5741 5739 5738 5736 5733 5731 5729 5726
5773 5774 5774 5774 5774 5773 5773 5773 5772 5771 5771 5770 5770 5769 5768 5767 5766 5765 5764 5763 5762 5760 5759 5757 5755 5754 5753 5751 5749 5747 5745 5742 5741 5738 5736 5734 5731 5729 5727 5726 5724 5722 5719 5717
5765 5766 5766 5766 5766 5765 5765 5763 5762 5762 5762 5761 5760 5759 5759 5758 5756 5755 5754 5753 5752 5750 5749 5747 5746 5744 5742 5741 5739 5737 5735 5733 5731 5729 5727 5725 5723 5720 5718 5716 5714 5712 5710 5708
5756 5757 5757 5757 5757 5757 5756 5755 5754 5753 5753 5752 5751 5750 5750 5748 5747 5746 5745 5744 5742 5741 5739 5737 5736 5734 5733 5731 5729 5727 5725 5723 5722 5720 5718 5716 5713 5711 5709 5707 5704 5702 5701 5699
5748 5748 5748 5748 5748 5748 5747 5747 5746 5745 5744 5743 5742 5741 5740 5739 5738 5737 5736 5735 5733 5732 5730 5728 5727 5725 5723 5721 5720 5718 5716 5714 5712 5710 5708 5706 5704 5702 5699 5697 5695 5693 5691 5689
5739 5739 5739 5739 5739 5738 5738 5737 5735 5734 5734 5734 5733 5732 5731 5730 5729 5728 5727 5725 5724 5723 5721 5719 5717 5716 5714 5712 5710 5708 5707 5705 5703 5701 5699 5697 5695 5692 5690 5688 5685 5683 5681 5679
5730 5730 5730 5730 5730 5729 5729 5728 5726 5725 5725 5724 5724 5723 5722 5721 5720 5719 5718 5716 5715 5714 5712 5710 5708 5707 5705 5703 5701 5699 5697 5696 5694 5692 5690 5688 5685 5683 5681 5679 5676 5674 5672 5670
5721 5721 5721 5721 5721 5720 5720 5719 5719 5718 5716 5716 5715 5714 5713 5712 5711 5710 5709 5707 5706 5705 5703 5702 5700 5698 5696 5694 5692 5690 5688 5687 5685 5683 5681 5678 5676 5674 5672 5670 5667 5665 5663 5661
5713 5712 5712 5712 5712 5711 5711 5710 5709 5709 5709 5707 5707 5706 5705 5704 5702 5701 5699 5699 5698 5696 5695 5693 5692 5690 5688 5686 5684 5682 5680 5678 5675 5673 5671 5669 5667 5665 5662 5660 5658 5655 5653 5651
5704 5704 5703 5703 5703 5702 5702 5701 5700 5700 5700 5699 5698 5697 5696 5695 5693 5692 5691 5690 5689 5687 5686 5684 5683 5681 5679 5676 5675 5673 5671 5668 5666 5663 5661 5659 5657 5655 5653 5650 5648 5646 5644 5642
5696 5695 5695 5695 5695 5694 5693 5692 5692 5691 5691 5690 5689 5688 5687 5686 5684 5683 5682 5681 5680 5678 5677 5675 5674 5672 5669 5667 5665 5663 5661 5659 5656 5654 5651 5649 5647 5646 5644 5641 5639 5637 5635 5633
5687 5687 5687 5687 5686 5685 5685 5684 5683 5682 5681 5681 5680 5679 5678 5677 5675 5674 5673 5672 5671 5669 5668 5666 5665 5663 5660 5658 5657 5654 5652 5650 5647 5645 5642 5640 5638 5637 5634 5632 5630 5628 5626 5623
5680 5679 5679 5678 5678 5677 5676 5675 5674 5673 5672 5672 5671 5670 5669 5668 5666 5665 5664 5663 5662 5661 5659 5658 5656 5655 5652 5650 5648 5646 5643 5641 5639 5636 5634 5632 5630 5628 5626 5623 5621 5619 5617 5615
5673 5672 5672 5671 5670 5669 5668 5667 5666 5666 5665 5664 5663 5661 5660 5659 5658 5657 5656 5655 5654 5652 5651 5649 5648 5646 5644 5641 5639 5637 5635 5633 5631 5629 5626 5624 5622 5620 5618 5615 5613 5611 5609 5607
5667 5666 5665 5664 5663 5662 5661 5660 5659 5659 5657 5656 5655 5654 5652 5652 5651 5650 5648 5647 5645 5644 5642 5641 5639 5637 5635 5633 5631 5629 5627 5625 5624 5621 5619 5617 5615 5612 5609 5607 5605 5603 5601 5599